sat.trackr.live / text

‹ back to catalog

STARLINK-34221

NORAD 64453 · 2025-130R

PAYLOAD ACTIVE UNKNOWN

§ Identity

Operator
Country
US
Launch date
2025-06-18
Launch site
AFETR
Launch vehicle
Mass (kg)
RCS (m²)

Purposes: comms

External: N2YO · Heavens-Above · Gunter

§ Orbital elements

Epoch: 2026-09-20T11:05:43.774080Z

Period
93.85 min
Inclination
53.1594°
Eccentricity
0.0001452
Mean motion
15.34407267 rev/d
Perigee alt
461.7 km
Apogee alt
463.7 km
Semi-major
6,840.8 km
B*
5.2766e-4
RAAN
259.5849°
Arg perigee
86.0901°
Mean anomaly
274.0267°
Rev number
7,058

§ Raw data

STARLINK-342211 64453U 25130R   26263.46231220  .00017497  00000+0  52766-3 0  99982 64453  53.1594 259.5849 0001452  86.0901 274.0267 15.34407267 70586

JSON: /api/v1/satellites/64453 · /tle

For live sub-satellite position, see the globe view (requires WebGL).

§ Visibility from observer

Set your observer location to see the next 7 days of passes ≥ 10°. The values pass through the URL so the page stays shareable.

No JS? Fill the form by hand. The geolocation button needs JavaScript.